Flag for U.S.A. Weather past 2 weeks in Mansfield, Texas, U.S.A.

Now
71 °F

Clear.


Feels Like: 74 °F
Forecast: 63 / 81 °F
Wind: 13 mph from South

Location: Burleson-Rendon


UV Index: 7 (High)

Visibility: 10 mi


Pressure: 29.77 "Hg

Humidity: 72%

Dew point: 62 °F

Location of MansfieldLocation

Historic Weather in Mansfield

°F

Mansfield temperature yesterday

Maximum temperature yesterday: 88 °F (at 3:52 PM)
Minimum temperature yesterday: 56 °F (at 3:15 AM)
Average temperature yesterday: 69 °F

Past Weeks' High & Low Weather Summary

 TemperatureHumidityPressure
High88 °F (Apr 23, 3:52 PM)100% (Apr 18, 6:48 AM)30.35 "Hg (Apr 18, 6:48 AM)
Low31 °F (Apr 15, 5:35 AM)19% (Apr 15, 1:48 PM)29.59 "Hg (Apr 13, 8:35 PM)
Average63 °F68%30.02 "Hg
* Reported Apr 9 1:15 AM — Apr 24 1:15 AM, Mansfield, Weather by CustomWeather, © 2014

Note: Actual official high and low records may vary slightly from our data, if they occured in-between our weather recording intervals... More about our weather records

Advertising

Historic Weather Conditions — Data for Previous 24 hours

 ConditionsComfort  
Time TempWeatherWind HumidityBarometerVisibility
1:15 AM
Apr 24
72 °FClear.15 mph70%29.78 "Hg10 mi
12:55 AM72 °FClear.15 mph69%29.77 "Hg10 mi
12:35 AM73 °FClear.14 mph67%29.77 "Hg10 mi
12:15 AM74 °FClear.18 mph64%29.77 "Hg10 mi
11:55 PM
Apr 23
74 °FClear.18 mph62%29.77 "Hg10 mi
11:15 PM74 °FClear.15 mph60%29.78 "Hg10 mi
10:55 PM73 °FClear.14 mph60%29.77 "Hg10 mi
10:15 PM74 °FClear.13 mph59%29.78 "Hg10 mi
9:55 PM75 °FClear.12 mph58%29.78 "Hg10 mi
9:35 PM75 °FClear.14 mph57%29.79 "Hg10 mi
9:15 PM75 °FClear.13 mph56%29.77 "Hg10 mi
8:55 PM77 °FSunny.15 mph55%29.75 "Hg10 mi
8:35 PM77 °FSunny.16 mph54%29.75 "Hg10 mi
8:15 PM78 °FSunny.18 mph53%29.75 "Hg10 mi
7:55 PM79 °FSunny.15 mph50%29.74 "Hg10 mi
7:35 PM80 °FSunny.15 mph47%29.73 "Hg10 mi
7:15 PM81 °FSunny.16 mph44%29.72 "Hg10 mi
6:50 PM82 °FSunny.18 mph42%29.73 "Hg10 mi
5:48 PM84 °FSunny.17 mph35%29.76 "Hg10 mi
3:52 PM88 °FScattered clouds.17 mph33%29.81 "Hg10 mi
2:50 PM86 °FSunny.21 mph38%29.83 "Hg10 mi
1:50 PM86 °FSunny.16 mph38%29.86 "Hg10 mi
12:53 PM84 °FSunny.16 mph40%29.88 "Hg10 mi
11:48 AM81 °FScattered clouds.14 mph51%29.92 "Hg10 mi
10:47 AM79 °FScattered clouds.13 mph58%29.94 "Hg10 mi
9:48 AM75 °FSunny.10 mph61%29.95 "Hg10 mi
8:50 AM68 °FSunny.8 mph78%29.95 "Hg10 mi
7:50 AM63 °FSunny.No wind83%29.93 "Hg10 mi
6:50 AM59 °FClear.No wind88%29.93 "Hg10 mi
6:35 AM59 °FClear.No wind87%29.93 "Hg10 mi
6:15 AM60 °FClear.No wind86%29.93 "Hg10 mi
5:55 AM58 °FClear.No wind90%29.93 "Hg10 mi
5:35 AM59 °FClear.No wind87%29.93 "Hg10 mi
5:15 AM57 °FClear.No wind93%29.93 "Hg10 mi
4:55 AM58 °FClear.No wind91%29.93 "Hg10 mi
4:15 AM57 °FClear.No wind92%29.93 "Hg10 mi
3:55 AM56 °FClear.No wind94%29.93 "Hg7 mi
3:35 AM56 °FCool.No wind94%29.94 "Hg7 mi
3:15 AM56 °FFog.No wind93%29.94 "Hg5 mi
2:55 AM57 °FFog.No wind91%29.94 "Hg5 mi
2:35 AM61 °FClear.No wind85%29.95 "Hg7 mi
2:15 AM60 °FClear.No wind88%29.95 "Hg7 mi
Weather by CustomWeather, © 2014

See weather overview